Regional Weather Roundup
Issued by NWS Little Rock, AR

Home | Current Version | Previous Version | Graphics & Text | Print | Product List | Glossary On
Versions: 1 2 3 4 5 6 7 8 9 10 11 12 13 14 15 16 17 18 19 20 21 22 23 24 25 26 27 28 29 30 31 32 33 34 35 36 37 38 39 40 41 42 43 44 45 46 47 48 49 50
000
ASUS44 KLZK 301105
RWRLZK

WEATHER ROUNDUP FOR ARKANSAS
NATIONAL WEATHER SERVICE LITTLE ROCK AR
600 AM CDT SUN AUG 30 2015

NOTE: "FAIR" INDICATES FEW OR NO CLOUDS BELOW 12,000 FEET WITH NO
SIGNIFICANT WEATHER AND/OR OBSTRUCTIONS TO VISIBILITY.

ARZ001-003-010-029-301200-
NORTHWEST ARKANSAS

CITY           SKY/WX    TMP DP  RH WIND       PRES   REMARKS
FAYETTEVILLE   MOCLDY    70  70 100 E5        30.00R
FORT SMITH     CLEAR     72  67  84 NE8       29.96S
BENTONVILLE    PTCLDY    72  66  83 S3        30.00S
ROGERS         CLOUDY    72  69  90 SE6       30.01R
SILOAM SPGS    MOCLDY    70  64  83 S5        29.98S
HIGHFILL       MOCLDY    71  70  96 S3        30.00R
SPRINGDALE     MOCLDY    72  68  88 SE3       30.02
$$

ARZ004-005-016-301200-
NORTH CENTRAL ARKANSAS

CITY           SKY/WX    TMP DP  RH WIND       PRES   REMARKS
BATESVILLE     CLOUDY    66  64  94 CALM      30.00S VSB 1/2
FLIPPIN        CLOUDY    68  64  88 CALM      30.01R
MTN HOME       CLOUDY    68  67  96 CALM      30.02R FOG
$$

ARZ040-041-301200-
WEST CENTRAL ARKANSAS

CITY           SKY/WX    TMP DP  RH WIND       PRES   REMARKS
MENA           MOCLDY    72  70  94 CALM      30.01S
MOUNT IDA      PTCLDY    67  66  97 CALM      29.98S FOG
$$

ARZ009-017-025-026-028-301200-
NORTHEAST ARKANSAS

CITY           SKY/WX    TMP DP  RH WIND       PRES   REMARKS
JONESBORO      PTCLDY    70  69  97 E3        30.01S
NEWPORT        PTCLDY    71  69  93 CALM      30.02R
WALNUT RIDGE   PTCLDY    72  66  83 SE8       30.00S
BLYTHEVILLE    TSTM      74  74 100 N8        30.04S
$$

ARZ022-023-033-042-044-301200-
CENTRAL ARKANSAS

CITY           SKY/WX    TMP DP  RH WIND       PRES   REMARKS
LITTLE ROCK    PTCLDY    70  66  87 CALM      29.99R
N LITTLE ROCK    N/A     71  66  84 W3        29.99R
JACKSONVILLE   CLEAR     66  65  97 W2        29.99R
SEARCY         CLEAR     66  66 100 CALM      30.01R
HOT SPRINGS    CLEAR     69  67  93 CALM      30.00S FOG
RUSSELLVILLE   CLOUDY    70  69  97 CALM      29.99R
$$

ARZ036-301200-
EAST ARKANSAS

CITY           SKY/WX    TMP DP  RH WIND       PRES   REMARKS
WEST MEMPHIS   CLOUDY    73  71  93 S8        30.01R
$$

ARZ050-053-066-070-073-301200-
SOUTHWEST ARKANSAS

CITY           SKY/WX    TMP DP  RH WIND       PRES   REMARKS
ARKADELPHIA    FOG       65  65 100 W3        29.99S VSB 1/2
CAMDEN         FOG       66  64  94 CALM      29.98S VSB 1
TEXARKANA      CLEAR     72  66  81 SE7       29.99R
EL DORADO      CLEAR     68  66  93 CALM      30.00R
DE QUEEN       PTCLDY    69  69 100 CALM      29.96S FOG
$$

ARZ056-057-069-301200-
SOUTHEAST ARKANSAS

CITY           SKY/WX    TMP DP  RH WIND       PRES   REMARKS
PINE BLUFF     CLEAR     67  66  97 CALM      29.99R
STUTTGART      PTCLDY    73  64  73 E3        29.99S
MONTICELLO     PTCLDY    73  67  81 CALM      29.99R

$$





USA.gov is the U.S. government's official web portal to all federal, state and local government web resources and services.